Location: Fort Wayne
(41.1310°N, 85.1290°W)
Time: 10:02:05
(UTC-05:00)

BREEZE-M DEB (TANK) - Visible Passes

Search period start: 17 January 2017 00:00
Search period end: 27 January 2017 00:00
Orbit: 270 x 13304 km, 49.6° (Epoch: 15 January)

Date Brightness Start Highest point End Pass type
(mag) Time Alt. Az. Time Alt. Az. Time Alt. Az.
17 Jan 8.5 04:24:58 10° WNW 06:21:15 75° WSW 07:02:16 10° SSE visible
17 Jan 7.7 20:24:59 10° S 20:53:31 57° ESE 22:38:49 10° NE visible
18 Jan 8.4 00:48:57 10° W 02:08:55 77° N 03:41:47 10° ESE visible
18 Jan 8.3 05:43:13 10° NW 07:29:45 56° WSW 08:06:29 10° S visible
18 Jan 7.9 17:37:32 10° E 17:52:14 12° ENE 18:12:29 10° NE visible
18 Jan 7.9 21:29:23 10° SSW 22:01:46 77° SE 00:00:20 10° ENE visible
19 Jan 8.6 02:00:28 10° W 03:46:16 83° NNE 04:51:36 10° ESE visible
19 Jan 8.2 07:04:16 10° NW 08:32:23 38° W 09:08:02 10° SSW visible
19 Jan 7.6 18:23:54 10° SE 18:49:11 27° E 19:53:58 10° NE visible
19 Jan 8.1 22:35:30 10° SW 23:16:57 88° NW 01:18:58 10° ENE visible
20 Jan 8.6 03:14:18 10° WNW 05:09:53 85° SW 05:59:04 10° SE visible
20 Jan 7.6 19:23:44 10° SSE 19:49:45 45° E 21:21:15 10° NE visible
20 Jan 8.3 23:43:21 10° WSW 00:42:42 79° NNW 02:34:08 10° E visible
21 Jan 8.4 04:30:22 10° WNW 06:23:06 68° WSW 07:04:27 10° SSE visible
21 Jan 7.7 20:26:52 10° SSW 20:54:35 65° ESE 22:45:08 10° ENE visible
22 Jan 8.5 00:53:10 10° W 02:21:03 78° NNE 03:45:55 10° ESE visible
22 Jan 8.2 05:48:42 10° NW 07:29:09 49° W 08:07:39 10° S visible
22 Jan 7.8 17:28:15 10° ESE 17:48:59 17° ENE 18:28:26 10° NE visible
22 Jan 8.0 21:31:53 10° SW 22:04:57 84° SE 00:06:27 10° ENE visible
23 Jan 8.7 02:05:07 10° WNW 03:53:47 87° NE 04:54:50 10° SE visible
23 Jan 8.2 07:10:28 10° NW 08:29:46 31° W 09:07:20 10° SW visible
23 Jan 7.5 18:23:23 10° SSE 18:47:28 33° E 20:01:12 10° NE visible
23 Jan 8.2 22:38:31 10° WSW 23:22:59 83° NNW 01:24:26 10° E visible
24 Jan 8.5 03:19:11 10° WNW 05:13:12 79° SW 06:01:26 10° SSE visible
24 Jan 7.6 19:24:52 10° S 19:49:34 53° ESE 21:27:27 10° NE visible
24 Jan 8.4 23:46:53 10° W 00:52:57 77° N 02:38:38 10° E visible
25 Jan 8.3 04:35:17 10° NW 06:23:30 61° WSW 07:05:57 10° S visible
25 Jan 7.8 20:28:45 10° SSW 20:56:12 73° ESE 22:51:14 10° ENE visible
26 Jan 8.6 00:57:10 10° W 02:31:30 81° NNE 03:49:23 10° ESE visible
26 Jan 8.2 05:53:49 10° NW 07:27:14 42° W 08:07:54 10° SSW visible
26 Jan 7.6 17:24:48 10° SE 17:46:19 23° E 18:38:05 10° NE visible
